| time (UTC) | temp F | wind direction | speed MPH | gust MPH | rain 1hr in | rain 24hr in | rain mn in | humidity % | barometer mb |
| 20260507194614 | 58 | 233 | 0.0 | 8.0 | 0.00 | 0.00 | 0.00 | 50 | 1011.9 |
| 20260507193046 | 58 | 203 | 0.0 | 10.0 | 0.00 | 0.00 | 0.00 | 49 | 1011.9 |
| 20260507191546 | 58 | 284 | 2.0 | 8.0 | 0.00 | 0.00 | 0.00 | 52 | 1012.1 |
| 20260507190050 | 57 | 304 | 1.0 | 8.0 | 0.00 | 0.00 | 0.00 | 53 | 1012.2 |
| 20260507184542 | 57 | 211 | 1.0 | 10.0 | 0.00 | 0.00 | 0.00 | 58 | 1012.2 |
| 20260507183046 | 56 | 227 | 1.0 | 6.0 | 0.00 | 0.00 | 0.00 | 56 | 1012.3 |
| 20260507181546 | 55 | 75 | 0.0 | 14.0 | 0.00 | 0.00 | 0.00 | 58 | 1012.3 |
| 20260507180040 | 56 | 288 | 0.0 | 3.0 | 0.00 | 0.00 | 0.00 | 56 | 1012.2 |
| 20260507174551 | 56 | 270 | 0.0 | 4.0 | 0.00 | 0.00 | 0.00 | 54 | 1012.3 |
| 20260507173054 | 57 | 319 | 0.0 | 4.0 | 0.00 | 0.00 | 0.00 | 53 | 1012.4 |
| 20260507171546 | 57 | 290 | 0.0 | 9.0 | 0.00 | 0.00 | 0.00 | 53 | 1012.6 |
| 20260507170035 | 58 | 265 | 0.0 | 6.0 | 0.00 | 0.00 | 0.00 | 57 | 1012.6 |
| 20260507164546 | 57 | 236 | 0.0 | 6.0 | 0.00 | 0.00 | 0.00 | 59 | 1012.6 |
| 20260507163032 | 55 | 287 | 0.0 | 6.0 | 0.00 | 0.00 | 0.00 | 61 | 1012.7 |
| 20260507161547 | 54 | 200 | 2.0 | 7.0 | 0.00 | 0.00 | 0.00 | 56 | 1012.8 |
| 20260507160037 | 55 | 275 | 0.0 | 7.0 | 0.00 | 0.00 | 0.00 | 54 | 1012.8 |
| 20260507154535 | 55 | 315 | 0.0 | 5.0 | 0.00 | 0.00 | 0.00 | 53 | 1012.7 |
| 20260507153029 | 56 | 256 | 2.0 | 7.0 | 0.00 | 0.00 | 0.00 | 53 | 1012.7 |
| 20260507151527 | 56 | 344 | 0.0 | 3.0 | 0.00 | 0.00 | 0.00 | 58 | 1012.9 |
| 20260507150026 | 55 | 306 | 0.0 | 3.0 | 0.00 | 0.00 | 0.00 | 57 | 1012.9 |
| 20260507144531 | 55 | 275 | 1.0 | 6.0 | 0.00 | 0.00 | 0.00 | 57 | 1012.8 |
| 20260507143025 | 55 | 246 | 0.0 | 4.0 | 0.00 | 0.00 | 0.00 | 61 | 1012.8 |
| 20260507141522 | 54 | 311 | 0.0 | 1.0 | 0.00 | 0.00 | 0.00 | 63 | 1012.9 |
| 20260507140017 | 53 | 241 | 0.0 | 3.0 | 0.00 | 0.00 | 0.00 | 66 | 1013.1 |
| 20260507134518 | 52 | 234 | 0.0 | 0.0 | 0.00 | 0.00 | 0.00 | 70 | 1013.2 |
| 20260507133013 | 51 | 275 | 2.0 | 6.0 | 0.00 | 0.00 | 0.00 | 70 | 1013.3 |
| 20260507131508 | 50 | 269 | 0.0 | 1.0 | 0.00 | 0.00 | 0.00 | 70 | 1013.4 |
| 20260507130005 | 49 | 246 | 0.0 | 3.0 | 0.00 | 0.00 | 0.00 | 74 | 1013.4 |
| 20260507124502 | 48 | 234 | 0.0 | 0.0 | 0.00 | 0.00 | 0.00 | 77 | 1013.4 |
| 20260507123058 | 47 | 253 | 0.0 | 3.0 | 0.00 | 0.00 | 0.00 | 77 | 1013.4 |
| 20260507121556 | 46 | 279 | 0.0 | 3.0 | 0.00 | 0.00 | 0.00 | 79 | 1013.3 |
| 20260507114607 | 44 | 267 | 0.0 | 3.0 | 0.00 | 0.00 | 0.00 | 82 | 1013.2 |
| 20260507113054 | 43 | 259 | 0.0 | 0.0 | 0.00 | 0.00 | 0.00 | 84 | 1013.1 |
| 20260507111556 | 43 | 259 | 0.0 | 0.0 | 0.00 | 0.00 | 0.00 | 84 | 1013.1 |
| 20260507104553 | 43 | 259 | 0.0 | 0.0 | 0.00 | 0.00 | 0.00 | 85 | 1012.8 |
| 20260507103053 | 43 | 259 | 0.0 | 0.0 | 0.00 | 0.00 | 0.00 | 85 | 1012.7 |
| 20260507101600 | 43 | 259 | 0.0 | 0.0 | 0.00 | 0.00 | 0.00 | 85 | 1012.7 |
| 20260507100052 | 43 | 259 | 0.0 | 0.0 | 0.00 | 0.02 | 0.00 | 85 | 1012.7 |
| 20260507094556 | 42 | 259 | 0.0 | 0.0 | 0.00 | 0.02 | 0.00 | 84 | 1012.7 |
| 20260507093050 | 42 | 259 | 0.0 | 0.0 | 0.00 | 0.02 | 0.00 | 85 | 1012.7 |
| 20260507091550 | 42 | 259 | 0.0 | 0.0 | 0.00 | 0.02 | 0.00 | 86 | 1012.8 |
| 20260507090054 | 42 | 46 | 0.0 | 0.0 | 0.00 | 0.06 | 0.00 | 87 | 1012.7 |
| 20260507084550 | 42 | 46 | 0.0 | 0.0 | 0.00 | 0.06 | 0.00 | 88 | 1012.8 |
| 20260507083047 | 42 | 46 | 0.0 | 0.0 | 0.00 | 0.06 | 0.00 | 88 | 1012.8 |
| 20260507081548 | 42 | 46 | 0.0 | 0.0 | 0.00 | 0.06 | 0.00 | 88 | 1013.0 |
| 20260507080045 | 42 | 46 | 0.0 | 0.0 | 0.00 | 0.13 | 0.00 | 87 | 1012.9 |
| 20260507074548 | 42 | 46 | 0.0 | 0.0 | 0.00 | 0.13 | 0.00 | 87 | 1012.9 |
| 20260507073057 | 42 | 46 | 0.0 | 0.0 | 0.00 | 0.13 | 0.00 | 87 | 1013.0 |
| 20260507071543 | 42 | 46 | 0.0 | 0.0 | 0.00 | 0.13 | 0.00 | 86 | 1013.1 |
| 20260507070043 | 42 | 46 | 0.0 | 0.0 | 0.00 | 0.15 | 0.00 | 86 | 1013.1 |
| 20260507064545 | 42 | 46 | 0.0 | 0.0 | 0.00 | 0.15 | 0.00 | 85 | 1013.2 |
| 20260507063046 | 43 | 46 | 0.0 | 0.0 | 0.00 | 0.15 | 0.00 | 84 | 1013.3 |
| 20260507061539 | 43 | 46 | 0.0 | 0.0 | 0.00 | 0.15 | 0.00 | 84 | 1013.5 |
| 20260507060033 | 43 | 46 | 0.0 | 0.0 | 0.00 | 0.19 | 0.00 | 83 | 1013.4 |
| 20260507054532 | 44 | 46 | 0.0 | 0.0 | 0.00 | 0.19 | 0.00 | 83 | 1013.5 |
| 20260507053034 | 44 | 46 | 0.0 | 0.0 | 0.00 | 0.19 | 0.00 | 82 | 1013.5 |
| 20260507051527 | 45 | 46 | 0.0 | 0.0 | 0.00 | 0.19 | 0.00 | 81 | 1013.5 |
| 20260507050024 | 45 | 46 | 0.0 | 0.0 | 0.00 | 0.23 | 0.00 | 80 | 1013.7 |
| 20260507044523 | 46 | 46 | 0.0 | 0.0 | 0.00 | 0.23 | 0.00 | 80 | 1013.7 |
| 20260507043022 | 46 | 46 | 0.0 | 0.0 | 0.00 | 0.23 | 0.00 | 80 | 1013.9 |
| 20260507041521 | 46 | 46 | 0.0 | 0.0 | 0.00 | 0.23 | 0.00 | 79 | 1013.8 |
| 20260507040018 | 46 | 46 | 0.0 | 0.0 | 0.00 | 0.31 | 0.23 | 81 | 1014.0 |
| 20260507034522 | 46 | 46 | 0.0 | 0.0 | 0.00 | 0.31 | 0.23 | 81 | 1014.2 |
| 20260507033018 | 46 | 46 | 0.0 | 0.0 | 0.00 | 0.31 | 0.23 | 80 | 1014.2 |
| 20260507031518 | 46 | 46 | 0.0 | 0.0 | 0.00 | 0.31 | 0.23 | 79 | 1014.3 |
| 20260507030017 | 47 | 46 | 0.0 | 0.0 | 0.00 | 0.45 | 0.23 | 78 | 1014.4 |
| 20260507024515 | 47 | 46 | 0.0 | 0.0 | 0.00 | 0.45 | 0.23 | 77 | 1014.3 |
| 20260507023014 | 47 | 46 | 0.0 | 0.0 | 0.00 | 0.45 | 0.23 | 75 | 1014.1 |
| 20260507021513 | 48 | 46 | 0.0 | 0.0 | 0.00 | 0.45 | 0.23 | 74 | 1014.1 |
| 20260507020014 | 48 | 46 | 0.0 | 0.0 | 0.00 | 0.55 | 0.23 | 75 | 1014.0 |
| 20260507014513 | 48 | 46 | 0.0 | 0.0 | 0.00 | 0.55 | 0.23 | 73 | 1014.0 |
| 20260507013013 | 49 | 46 | 0.0 | 0.0 | 0.00 | 0.55 | 0.23 | 74 | 1013.7 |
| 20260507011510 | 49 | 46 | 0.0 | 0.0 | 0.00 | 0.55 | 0.23 | 73 | 1013.7 |
| 20260507010025 | 49 | 46 | 0.0 | 0.0 | 0.00 | 0.64 | 0.23 | 71 | 1013.6 |
| 20260507004508 | 49 | 45 | 0.0 | 0.0 | 0.00 | 0.64 | 0.23 | 70 | 1013.6 |
| 20260507003007 | 49 | 46 | 0.0 | 0.0 | 0.00 | 0.64 | 0.23 | 68 | 1013.6 |
| 20260507001508 | 49 | 46 | 0.0 | 0.0 | 0.00 | 0.64 | 0.23 | 67 | 1013.6 |
| 20260507000007 | 50 | 46 | 0.0 | 0.0 | 0.00 | 0.67 | 0.23 | 67 | 1013.5 |
| 20260506234509 | 50 | 46 | 0.0 | 0.0 | 0.00 | 0.67 | 0.23 | 65 | 1013.6 |
| 20260506233005 | 50 | 40 | 0.0 | 0.0 | 0.00 | 0.67 | 0.23 | 64 | 1013.5 |
| 20260506231504 | 50 | 43 | 0.0 | 0.0 | 0.00 | 0.67 | 0.23 | 65 | 1013.4 |
| 20260506230003 | 51 | 25 | 0.0 | 0.0 | 0.00 | 0.82 | 0.23 | 65 | 1013.4 |
| 20260506224511 | 51 | 310 | 0.0 | 2.0 | 0.00 | 0.82 | 0.23 | 66 | 1013.3 |
| 20260506223002 | 51 | 49 | 0.0 | 0.0 | 0.00 | 0.82 | 0.23 | 64 | 1013.4 |
| 20260506221600 | 51 | 65 | 0.0 | 4.0 | 0.00 | 0.82 | 0.23 | 64 | 1013.2 |
| 20260506220109 | 51 | 38 | 0.0 | 4.0 | 0.00 | 0.96 | 0.23 | 64 | 1013.0 |
| 20260506214558 | 51 | 17 | 0.0 | 2.0 | 0.00 | 0.96 | 0.23 | 65 | 1012.9 |
| 20260506213055 | 52 | 72 | 1.0 | 5.0 | 0.00 | 0.96 | 0.23 | 64 | 1012.5 |
| 20260506211557 | 52 | 39 | 1.0 | 5.0 | 0.00 | 0.96 | 0.23 | 62 | 1012.4 |
| 20260506210055 | 52 | 18 | 0.0 | 5.0 | 0.00 | 1.12 | 0.23 | 62 | 1012.4 |
| 20260506204554 | 53 | 42 | 0.0 | 4.0 | 0.00 | 1.12 | 0.23 | 60 | 1012.4 |
| 20260506203059 | 54 | 109 | 0.0 | 6.0 | 0.00 | 1.12 | 0.23 | 58 | 1012.3 |
| 20260506201554 | 54 | 40 | 0.0 | 3.0 | 0.00 | 1.12 | 0.23 | 53 | 1012.1 |
| 20260506200052 | 54 | 306 | 0.0 | 3.0 | 0.00 | 1.15 | 0.23 | 56 | 1012.3 |